OpenBCM V1.07b12 (Linux)

Packet Radio Mailbox

SR8BBS

[OBCM_Lublin]

 Login: GUEST





  
I0OJJ  > KEPS     30.06.25 23:15z 343 Lines 16342 Bytes #14 (0) @ AMSAT
BID : ORB25181.1
Read: GUEST
Subj: 2Line Orbital Elements 25181.AMSAT
Path: SR8BBS<SR1BSZ<EA2RCF<I0OJJ
Sent: 250630/0025z @:I0OJJ.ITA.EU [Rome] obcm1.08-10-g596e
From: I0OJJ @ I0OJJ.ITA.EU (Gustavo)
To:   KEPS @ AMSAT
X-Info: This message was generated automatically


QST de W1STR

AMSAT Orbital Elements for Amateur Satellites in TLE Format
From Orbital Analysis Office
New England Sci-Tech STEM Education Center
Natick, MA June 30, 2025
To all radio amateurs


These element sets describe the orbits of various satellites 
in use by the amateur radio community. For details see:
www.amsat.org/keplerian-elements-formats/

A daily update of element sets is available at:
www.amsat.org/tle/daily-bulletin.txt
or without bulletin text:
www.amsat.org/tle/dailytle.txt


AO-07
1 07530U 74089B   25180.60637258 -.00000045  00000-0  10327-4 0  9993
2 07530 101.9927 185.0836 0012657  84.1710  26.7253 12.53689880316576
UO-11
1 14781U 84021B   25180.55408874  .00000708  00000-0  80232-4 0  9997
2 14781  97.7552 146.5291 0006213 271.2845  88.7660 14.89433550204617
AO-27
1 22825U 93061C   25180.70745276  .00000055  00000-0  38223-4 0  9994
2 22825  98.7358 242.3626 0009327  58.7922 301.4173 14.30805004656865
FO-29
1 24278U 96046B   25180.56636311 -.00000019  00000-0  20056-4 0  9993
2 24278  98.5733  71.8272 0348880 290.9005  65.5120 13.53250018425472
NOAA-15
1 25338U 98030A   25180.79502269  .00000145  00000-0  77458-4 0  9992
2 25338  98.5340 205.4388 0009145 304.0655  55.9658 14.26989501411283
GO-32
1 25397U 98043D   25180.85318693  .00000031  00000-0  33511-4 0  9990
2 25397  98.9710 160.3965 0002031 122.9942 237.1431 14.24319178401395
ISS
1 25544U 98067A   25180.66711005  .00007263  00000-0  13370-3 0  9997
2 25544  51.6378 245.2193 0002142 307.1771 202.1734 15.50303257517095
NO-44
1 26931U 01043C   25180.13561501  .00000088  00000-0  64118-4 0  9997
2 26931  67.0513  77.2789 0006145 276.7349  83.3053 14.31742548239903
SO-50
1 27607U 02058C   25180.59898416  .00000870  00000-0  12577-3 0  9993
2 27607  64.5519 138.7385 0058623 329.6703  30.1014 14.81670916212190
CO-55
1 27844U 03031E   25180.56460837  .00000187  00000-0  10044-3 0  9995
2 27844  98.6755 188.5799 0010659 125.2596 234.9581 14.24009092141486
CO-57
1 27848U 03031J   25180.59265851  .00000161  00000-0  90453-4 0  9996
2 27848  98.6782 188.5982 0010264 141.1237 219.0681 14.23342041141269
RS-22
1 27939U 03042A   25180.86812913  .00000621  00000-0  10641-3 0  9997
2 27939  98.3296 350.8112 0010372 309.9029 186.5712 14.72391885163811
CO-58
1 28895U 05043F   25180.37993883  .00000919  00000-0  15793-3 0  9997
2 28895  98.2522 324.9803 0013384 241.5068 118.4790 14.71064690 49850
CO-65
1 32785U 08021C   25180.89020415  .00002487  00000-0  18158-3 0  9998
2 32785  97.7851 152.2072 0010885 136.6225 223.5859 15.04578223932207
CO-66
1 32791U 08021J   25180.46719116  .00006935  00000-0  33385-3 0  9992
2 32791  97.7286 160.9574 0005840  98.3169 261.8727 15.19083195933514
RS-30
1 32953U 08025A   25180.84366165  .00000004  00000-0 -45814-4 0  9993
2 32953  82.5013 214.5765 0019207   5.7046 354.4249 12.43165769776054
NOAA-19
1 33591U 09005A   25180.80417932  .00000118  00000-0  86744-4 0  9998
2 33591  98.9965 245.6216 0012827 309.3308  50.6727 14.13382840844963
SRMSAT
1 37841U 11058D   25180.67154325  .00000350  00000-0  46444-4 0  9991
2 37841  19.9736  32.9639 0011724 285.9015 120.7307 14.11441038708177
ZACUBE-1
1 39417U 13066B   25180.84274334  .00002897  00000-0  25342-3 0  9996
2 39417  97.7818 137.7511 0043641 347.1388  12.8716 14.96819302627949
Delfi-N3xt
1 39428U 13066N   25180.72793601  .00003695  00000-0  37818-3 0  9996
2 39428  97.8340  98.1560 0082863 294.8684  64.3935 14.88613308622255
GOMX-1
1 39430U 13066Q   25180.80282556  .00001216  00000-0  19437-3 0  9994
2 39430  97.6817  38.2245 0133511 127.3066 234.0397 14.67701699618375
LO-74
1 39440U 13066AA  25180.82446889  .00001688  00000-0  17436-3 0  9998
2 39440  97.8500 125.2461 0063402 112.6619 248.1320 14.90036349625656
AO-73
1 39444U 13066AE  25180.46004053  .00003734  00000-0  28061-3 0  9995
2 39444  97.7804 142.4536 0041254 321.0806  38.7451 15.02550326626575
DTUSAT-2
1 40030U 14033W   25180.45783053  .00004145  00000-0  27021-3 0  9998
2 40030  98.0565 153.2413 0009088   4.8780 355.2533 15.08474260599391
EO-80
1 40032U 14033Y   25180.34434896  .00004407  00000-0  28649-3 0  9994
2 40032  98.0442 152.7498 0007064 299.4674  60.5848 15.08552633599352
LILACSAT-2
1 40908U 15049K   25180.82903928  .00008235  00000-0  21299-3 0  9991
2 40908  97.5046 201.6682 0011073  90.0613 270.1901 15.39297938541343
IO-86
1 40931U 15052B   25151.18580175  .00001241  00000-0  78118-4 0  9996
2 40931   6.0006  24.0987 0012733 338.8432  21.1169 14.78805930523047
Horyu-4
1 41340U 16012D   25179.89101764  .00015394  00000-0  40089-3 0  9998
2 41340  30.9976   2.0006 0006254 267.1258  92.8672 15.37573108515762
Lapan A3
1 41603U 16040E   25180.84162149  .00002168  00000-0  77111-4 0  9994
2 41603  97.1367 184.6553 0010639 187.2424 172.8665 15.29974043500888
CAS-2T
1 41847U 16066G   25180.16047559  .00001252  00000-0  18497-3 0  9998
2 41847  98.4197 254.4516 0347074 119.2133 244.4241 14.43540894453843
CAS-4B
1 42759U 17034B   25180.76818261  .00048015  00000-0  45931-3 0  9990
2 42759  43.0046 201.3302 0019218  69.1428 291.1493 15.65690914445769
CAS-4A
1 42761U 17034D   25180.52907075  .00053776  00000-0  48505-3 0  9999
2 42761  43.0083 199.6871 0020293  72.5300 287.7783 15.67075227445742
TechnoSat
1 42829U 17042E   25179.96675403  .00001506  00000-0  11972-3 0  9998
2 42829  97.3856 347.7492 0015760 207.2161 152.8240 15.01782333433633
AO-91
1 43017U 17073E   25180.60795084  .00005262  00000-0  26807-3 0  9999
2 43017  97.5210  50.8730 0173414  98.3453 263.7475 15.04990647412226
S-Net D
1 43186U 18014G   25180.61858833  .00002996  00000-0  17825-3 0  9996
2 43186  97.5604  83.3212 0009903 147.1105 213.0743 15.11975445405409
S-Net B
1 43187U 18014H   25180.62424983  .00002799  00000-0  16683-3 0  9995
2 43187  97.5611  83.2994 0010678 143.2776 216.9187 15.11954974405404
S-Net A
1 43188U 18014J   25180.61890834  .00003016  00000-0  17937-3 0  9993
2 43188  97.5620  83.4471 0010582 144.0027 216.1918 15.11980200405404
S-Net C
1 43189U 18014K   25180.62670397  .00002714  00000-0  16185-3 0  9993
2 43189  97.5636  83.4726 0012271 138.1781 222.0389 15.11950333403953
Ten-Koh
1 43677U 18084G   25180.46663308  .00001234  00000-0  10274-3 0  9997
2 43677  98.0853 353.5094 0007221 183.7592 176.3577 15.00645268363227
PO-101
1 43678U 18084H   25180.82306044  .00001286  00000-0  11317-3 0  9995
2 43678  98.1029 357.7201 0008132 212.4363 147.6359 14.98394926363416
QO-100
1 43700U 18090A   25180.83110698  .00000141  00000-0  00000+0 0  9999
2 43700   0.0183  25.9866 0002114 108.9068 108.2305  1.00270300 24383
MinXSS-2
1 43758U 18099A   25180.13335595  .00010765  00000-0  41757-3 0  9990
2 43758  97.5007 246.2376 0013152  90.0277 270.2469 15.26218627359955
AO-95
1 43770U 18099N   25180.69595865  .00005541  00000-0  27917-3 0  9991
2 43770  97.4900 238.5619 0011951 137.4232 222.7930 15.17520267359609
RANGE-A
1 43773U 18099R   25180.09391725  .00003019  00000-0  19337-3 0  9992
2 43773  97.4463 227.9303 0012751 121.8403 238.4069 15.09230559359165
MOVE-II
1 43780U 18099Y   25180.69652100  .00425720  70120-4  14172-2 0  9995
2 43780  97.4626 258.0785 0006805 230.5222 129.5450 15.90207185360988
SNUSat 2
1 43782U 18099AA  25180.09420078  .00005129  00000-0  27879-3 0  9990
2 43782  97.4581 234.5583 0013614  88.2974 271.9817 15.14848563359459
SnugLite
1 43784U 18099AC  25180.72176250  .00005062  00000-0  25318-3 0  9994
2 43784  97.4392 234.7755 0005149  91.2450 268.9374 15.17860011359696
ITASat 1
1 43786U 18099AE  25180.38608874  .00003561  00000-0  20406-3 0  9995
2 43786  97.4547 234.2961 0015643 134.2936 225.9581 15.13129265359453
EAGLET 1
1 43790U 18099AJ  25180.11056987  .00002793  00000-0  17938-3 0  9995
2 43790  97.4747 233.9188 0013475 119.9729 240.2840 15.09184887359014
ESEO
1 43792U 18099AL  25180.57881116  .00000586  00000-0  48195-4 0  9995
2 43792  97.4470 227.3730 0015215  93.5581 266.7385 15.02678446358823
CSIM
1 43793U 18099AM  25180.68526714  .00085362  00000-0  46790-3 0  9991
2 43793  97.4771 260.2048 0004754 140.5094 219.6520 15.79547991360818
JO-97
1 43803U 18099AX  25180.38637699  .00007008  00000-0  31700-3 0  9991
2 43803  97.4646 239.2892 0008925  81.5080 278.7167 15.21194350359788
Suomi 100
1 43804U 18099AY  25180.10359923  .00006611  00000-0  32124-3 0  9993
2 43804  97.4710 238.2494 0013842  82.9679 277.3129 15.18690396359668
ISAT
1 43879U 18111D   25180.50473279  .00012089  00000-0  41167-3 0  9998
2 43879  97.5944  95.3454 0010559 121.3183 238.9092 15.30504306356745
UWE-4
1 43880U 18111E   25180.21039291  .00008477  00000-0  32829-3 0  9991
2 43880  97.5888  93.3844 0013329 134.9505 225.2816 15.26346679356623
Sparrow
1 43881U 18111F   25180.73168851  .00012710  00000-0  41617-3 0  9994
2 43881  97.6090  98.5343 0007802 151.0362 209.1314 15.31786325354872
Prox-1
1 44339U 19036A   25180.64069859  .00005902  00000-0  72397-3 0  9992
2 44339  23.9975 289.9910 0006909 307.1447  52.8419 14.80284048321080
SONATE
1 44400U 19038Q   25180.61023927  .01029342  73089-3  72506-3 0  9993
2 44400  97.6697 210.7014 0009252 204.2580 155.8271 16.16327399332781
Taurus 1
1 44530U 19059C   25180.86169631  .00003461  00000-0  64050-3 0  9998
2 44530  98.6096 321.2215 0008191 338.9452  21.1411 14.66030587306914
Duchifat 3
1 44854U 19089C   25180.49855709  .00026521  00000-0  49351-3 0  9996
2 44854  36.9412 228.4023 0003671 136.5530 223.5516 15.48006009306100
TO-108
1 44881U 19093C   25180.83328716  .00000550  00000-0  69574-4 0  9996
2 44881  97.7922 256.0597 0014314 159.6142 200.5648 14.85633687299082
